Regional Weather Roundup
Issued by NWS

Home | Current Version | Previous Version | Text Only | Print | Product List | Glossary Off
Versions: 1 2 3 4 5 6 7 8 9 10 11 12 13 14 15 16 17 18 19 20 21 22 23 24 25 26 27 28 29 30 31 32 33 34 35 36 37 38 39 40 41 42 43 44 45 46 47 48 49 50

000
ASUS43 KOAX 040210
RWRNE

WEATHER ROUNDUP FOR NEBRASKA
NATIONAL WEATHER SERVICE OMAHA NE
900 PM CDT MON AUG 03 2015

NOTES: SATELLITE DATA IS BEING USED TO AUGMENT CLOUD COVER ABOVE
       12000 FEET.
       "FAIR" INDICATES FEW OR NO CLOUDS BELOW 12,000 FEET WITH NO
       SIGNIFICANT WEATHER AND/OR OBSTRUCTIONS TO VISIBILITY.

  * THESE STATIONS DO NOT REPORT WEATHER SUCH AS RAIN...SNOW OR FOG.

NEZ001>004-019>022-054>056-040300-
NEBRASKA PANHANDLE

CITY           SKY/WX    TMP DP  RH WIND       PRES   REMARKS
SCOTTSBLUFF    CLOUDY    78  61  55 E3        29.96R
ALLIANCE       CLOUDY    79  61  53 S8        29.96R
CHADRON        CLOUDY    82  62  50 SE6       29.90S
KIMBALL        CLOUDY    77  47  34 S14       30.03R
SIDNEY         CLOUDY    79  58  48 S10       30.01R
$$

NEZ057>060-069>072-079>082-040300-
SOUTHWEST NEBRASKA

CITY           SKY/WX    TMP DP  RH WIND       PRES   REMARKS
NORTH PLATTE   CLOUDY    76  71  85 E8        29.94S
IMPERIAL       CLOUDY    80  68  66 E8        29.96R
LEXINGTON      MOCLDY    76  70  80 E12       29.95S
MCCOOK         CLOUDY    80  70  71 E7        29.92S
OGALLALA       MOCLDY    79  68  68 E6        29.97R
$$

NEZ005>010-023>029-035>040-094-040300-
NORTH CENTRAL NEBRASKA

CITY           SKY/WX    TMP DP  RH WIND       PRES   REMARKS
AINSWORTH      MOCLDY    73  62  68 E7        29.98R
BROKEN BOW     MOCLDY    76  63  64 SE9       29.96R
O`NEILL        MOCLDY    75  64  67 SE5       29.98R
ORD            MOCLDY    72  63  73 E6        29.95S
THEDFORD       MOCLDY    78  63  59 E13       29.97R
$$

NEZ041-046>049-061>064-073>077-083>087-040300-
SOUTH CENTRAL NEBRASKA

CITY           SKY/WX    TMP DP  RH WIND       PRES   REMARKS
GRAND ISLAND   MOCLDY    73  66  78 E6        29.95S
AURORA         CLOUDY    72  68  88 E8        29.95S
HASTINGS       CLOUDY    74  67  78 E7        29.95R
HEBRON         CLOUDY    77  66  68 E9        29.93R
HOLDREGE       MOCLDY    75  70  85 E10       29.94S
KEARNEY *      MOCLDY    73  66  78 E8        29.95S
YORK           CLOUDY    72  66  83 E7        29.95S
$$

NEZ011>018-030>034-042>045-040300-
NORTHEAST NEBRASKA

CITY           SKY/WX    TMP DP  RH WIND       PRES   REMARKS
NORFOLK        MOCLDY    70  63  78 SE3       29.96R
ALBION         PTCLDY    71  63  76 E3        29.97S
BLAIR          MOCLDY    72  65  77 CALM      29.95S
COLUMBUS *     PTCLDY    70  61  73 E3        29.96S
FREMONT        MOCLDY    75  63  66 CALM      29.96R
TEKAMAH        CLOUDY    76  68  76 E5        29.94S
WAYNE          CLOUDY    72  67  85 SE5       29.97R
$$

NEZ050>053-065>068-078-088>093-040300-
SOUTHEAST NEBRASKA

CITY           SKY/WX    TMP DP  RH WIND       PRES   REMARKS
LINCOLN        PTCLDY    76  64  66 E6        29.95R
OMAHA EPPLEY   MOCLDY    77  65  66 E5        29.94R
BEATRICE       MOCLDY    75  69  81 E5        29.94R
FALLS CITY     MOCLDY    76  71  85 E3        29.92R
NEBRASKA CITY  MOCLDY    71  64  78 NE3       29.95R
PLATTSMOUTH    MOCLDY    72  65  79 E5        29.96R
$$

NEZ044-045-051>053-067-040300-
OMAHA AREA

CITY           SKY/WX    TMP DP  RH WIND       PRES   REMARKS
OMAHA EPPLEY   MOCLDY    77  65  66 E5        29.94R
BLAIR          MOCLDY    72  65  77 CALM      29.95S
FREMONT        MOCLDY    75  63  66 CALM      29.96R
MILLARD        MOCLDY    75  64  68 CALM      29.94R
OFFUTT AFB     MOCLDY    73  66  79 E5        29.94R
PLATTSMOUTH    MOCLDY    72  65  79 E5        29.96R
WAHOO          FAIR      71  66  83 E3        29.95S
$$



USA.gov is the U.S. government's official web portal to all federal, state and local government web resources and services.